Theta_e
304 305 306 304 304 304 303 304 303 303 303 304 306 307 309 308 310 317 319 322 323 325 327 330 332 332 331 330 329 328 328 329 328 328 328 327 325 323 322 325 328 327 324 325
304 305 304 304 304 304 303 303 304 303 303 303 304 305 306 309 310 313 318 321 322 323 325 327 331 330 329 331 329 329 328 327 328 328 328 327 326 324 325 322 319 321 323 324
304 303 303 304 304 305 305 304 303 303 303 304 304 305 306 306 308 311 312 317 321 323 323 324 329 331 330 331 330 330 328 327 326 329 327 325 324 323 320 318 322 323 324 323
303 304 304 305 305 305 307 305 303 305 305 305 304 308 305 306 307 310 314 314 318 322 324 324 326 330 330 332 331 330 329 328 326 329 325 323 321 319 316 316 323 324 323 323
304 304 305 305 305 304 308 305 305 304 306 306 304 307 308 308 308 309 313 316 316 319 322 324 327 329 329 331 329 329 329 329 328 327 324 323 320 316 314 314 324 323 323 323
305 303 303 304 304 304 304 306 306 306 307 307 305 306 305 307 311 311 312 315 318 319 320 322 326 329 329 330 329 328 328 329 329 327 324 321 319 316 318 322 323 322 322 322
302 302 302 304 306 306 306 307 309 308 308 307 304 306 307 307 308 313 313 315 316 319 321 322 323 327 329 328 328 327 327 328 328 326 323 320 319 316 316 320 321 322 323 322
301 301 302 304 303 306 307 307 305 303 304 305 306 308 308 307 308 311 314 315 317 319 321 324 327 327 329 329 328 327 327 327 326 325 322 319 321 320 321 322 323 322 322 322
300 301 301 302 303 304 307 309 305 309 310 309 310 308 308 310 310 310 312 316 319 320 321 324 328 328 329 329 329 327 327 327 327 326 322 321 322 322 322 323 322 323 324 323
299 302 301 303 304 304 308 307 306 308 312 313 316 316 313 314 316 317 314 319 318 319 321 323 328 328 329 328 329 327 328 327 327 326 324 319 319 320 322 325 324 323 323 323
299 302 301 303 307 307 308 308 306 305 307 314 321 320 317 319 319 319 317 318 321 321 320 323 327 328 328 327 326 327 327 327 326 326 325 324 322 322 324 324 324 324 324 322
299 299 301 303 304 306 309 310 306 310 308 309 312 322 312 314 314 317 320 320 321 322 323 326 328 327 327 325 325 326 327 327 327 326 328 326 325 324 325 324 324 325 322 318
299 299 302 307 308 305 305 305 310 308 310 314 321 321 310 310 311 314 319 315 316 323 326 326 326 326 325 324 324 327 327 327 326 326 327 327 325 325 324 324 325 320 315 305
297 299 301 303 304 303 306 305 306 312 311 314 315 312 306 306 309 309 308 308 310 313 317 320 320 321 321 322 323 325 325 324 324 325 324 320 319 318 317 313 313 309 309 306
297 298 299 300 300 303 304 302 305 304 304 312 309 306 305 304 308 307 306 305 305 305 306 307 310 312 312 314 314 313 313 313 311 311 311 310 309 310 309 310 308 307 308 307
297 298 299 301 306 306 304 300 302 301 300 303 306 306 303 301 304 305 305 304 303 302 302 303 304 307 308 308 308 309 309 309 309 309 309 308 307 307 308 307 306 305 304 305
297 299 300 302 304 305 307 299 300 302 299 299 303 304 301 299 301 301 302 302 301 301 301 301 302 303 303 306 306 305 306 307 307 306 306 306 305 305 305 306 306 307 307 308
297 298 300 302 305 310 304 299 298 299 298 296 298 301 301 299 296 295 298 299 299 300 300 300 301 303 304 305 307 306 305 305 305 305 305 306 306 307 307 307 307 307 304 301
296 298 300 305 307 309 303 298 296 298 299 295 296 297 300 300 299 295 294 296 297 298 300 301 303 305 305 305 305 305 305 305 305 305 306 306 306 307 307 307 305 303 302 302
298 298 300 304 309 305 300 295 294 298 301 294 294 293 293 299 297 292 291 297 299 301 303 303 303 303 304 303 305 306 305 305 304 303 304 304 305 305 304 304 303 303 303 303
300 301 303 304 308 303 296 293 296 297 295 293 292 291 290 289 289 287 295 296 298 300 301 302 304 303 302 303 305 306 304 304 300 300 300 301 301 300 299 299 299 298 297 296
300 301 301 301 300 299 293 293 294 292 291 291 290 289 288 287 287 290 295 298 300 301 302 302 302 298 296 296 296 295 295 293 293 293 294 293 293 293 293 292 292 292 292 291
301 296 298 299 298 294 291 291 290 290 289 289 288 288 287 286 285 286 287 288 289 290 291 291 291 291 292 292 293 293 290 291 291 291 291 291 290 291 290 291 290 290 290 290
298 295 298 299 298 294 290 290 289 288 287 286 286 286 286 286 286 287 287 287 288 288 289 290 291 291 290 290 291 290 289 289 290 290 290 290 290 290 290 290 290 289 289 288
296 294 296 299 297 296 292 288 286 287 286 287 287 287 286 288 288 288 287 288 288 288 289 290 290 290 290 289 289 289 289 289 289 290 289 290 289 289 288 287 286 284 283 282
293 294 298 299 293 293 289 286 286 287 287 287 287 288 288 288 288 287 287 287 287 287 287 288 288 287 287 287 287 287 287 288 288 288 288 286 286 285 284 283 282 281 280 279
Wind_Speed
14 10 15 19 19 22 20 24 25 21 19 19 20 21 19 25 33 23 22 33 36 32 31 26 28 33 38 33 34 34 37 43 39 40 39 33 27 26 23 20 21 27 25 24
14 18 23 22 21 22 25 25 25 25 23 20 23 24 21 23 22 34 30 32 27 33 36 31 29 32 37 38 39 38 38 39 44 43 41 39 34 27 26 30 28 26 25 23
19 23 21 22 19 22 26 26 24 24 20 20 20 23 23 25 29 33 33 36 30 31 33 37 33 34 38 42 41 42 40 39 42 39 31 34 33 33 32 30 29 28 25 21
17 17 17 22 25 23 26 25 24 22 18 15 16 17 23 23 26 27 35 37 36 33 32 33 35 35 40 42 44 43 39 40 39 38 36 40 44 40 38 33 29 28 25 24
21 25 23 22 28 24 27 18 22 22 18 18 22 13 17 20 25 29 28 34 40 37 32 33 33 35 41 44 43 43 41 41 39 43 40 41 40 36 36 33 31 30 27 26
21 28 21 27 26 22 17 17 11 19 14 14 23 18 16 19 20 25 28 37 37 37 36 32 29 33 37 41 43 37 39 40 42 42 42 43 40 37 36 34 33 31 29 28
27 16 16 4 8 4 9 12 6 7 8 12 18 16 19 15 26 23 27 34 39 38 34 37 35 34 36 38 43 41 41 44 43 43 43 37 38 41 36 34 33 33 30 29
12 24 9 2 7 9 10 11 5 7 10 13 17 10 14 28 27 23 21 36 38 37 40 37 36 36 37 39 44 39 43 44 44 42 42 40 38 41 34 34 34 32 32 30
12 12 18 18 19 8 9 10 16 5 9 9 7 13 19 21 22 24 18 23 31 34 39 40 38 38 38 39 42 41 43 43 46 45 40 37 39 42 38 35 34 33 32 35
6 17 11 19 2 4 5 6 8 4 4 6 8 11 5 20 16 16 21 18 25 29 32 36 34 33 34 37 39 39 41 42 46 46 43 43 41 40 38 37 34 33 33 36
15 5 15 16 5 2 3 4 7 8 8 4 1 4 9 11 2 7 12 17 19 21 23 31 31 30 31 32 35 39 39 41 44 44 43 42 40 40 39 38 37 36 36 33
9 6 8 19 11 3 3 4 16 6 5 7 7 2 11 11 10 7 7 7 13 18 19 22 25 27 28 31 33 37 40 41 40 44 45 43 42 43 44 42 39 41 37 32
12 5 9 5 1 7 3 10 9 16 8 7 7 3 15 14 11 11 4 4 13 18 20 24 26 28 30 30 32 38 38 41 41 42 42 44 44 45 43 42 39 33 26 23
18 5 7 8 14 13 10 18 21 5 5 8 2 8 17 16 12 10 12 13 21 22 23 24 24 23 24 27 27 31 32 33 37 37 39 37 36 35 34 26 27 22 18 19
5 5 10 18 17 12 13 24 21 18 14 8 10 9 13 14 8 10 14 17 26 26 21 19 19 18 17 16 15 15 15 14 13 15 12 12 11 10 13 19 20 22 21 13
9 5 14 5 5 10 7 26 19 22 20 11 11 10 13 14 15 19 20 23 28 28 29 25 25 24 21 21 19 16 15 17 17 20 22 25 24 26 27 23 17 11 13 16
7 7 9 6 13 13 3 23 15 11 19 12 9 8 11 17 18 19 24 30 31 31 33 32 32 33 30 34 34 33 34 36 40 35 32 27 22 18 17 15 14 15 14 11
10 13 3 6 12 4 4 17 10 13 24 27 17 13 11 15 36 43 35 34 35 36 37 38 40 42 41 39 44 36 30 28 29 27 23 19 13 12 10 9 9 9 9 8
6 5 5 5 6 1 12 21 11 9 16 27 21 18 11 16 47 43 40 41 42 45 45 43 40 39 37 36 33 30 27 23 21 16 12 11 10 10 7 5 4 5 6 7
7 5 3 4 5 9 14 26 39 8 17 29 26 19 18 16 23 9 33 42 44 43 44 40 38 36 33 28 25 23 21 19 17 16 15 13 10 7 6 4 1 3 7 9
7 4 9 10 5 4 20 32 21 11 7 28 27 23 28 18 15 19 39 43 41 40 39 35 33 32 29 25 21 23 23 24 21 19 16 14 12 11 9 8 6 6 8 10
6 8 5 6 7 7 35 14 9 9 19 21 27 26 28 30 37 41 42 41 39 38 35 33 32 32 28 27 26 28 28 24 20 17 15 14 13 12 11 10 10 10 11 12
4 4 4 7 4 6 15 15 21 20 16 21 22 22 24 31 34 36 39 38 38 38 36 34 34 31 29 29 27 28 27 21 19 16 17 18 17 17 17 16 16 15 15 16
3 9 2 2 6 8 19 17 18 18 18 17 20 22 27 33 33 36 35 35 35 34 34 32 30 31 32 29 27 27 23 21 19 19 19 19 18 18 17 17 18 19 20 21
3 8 5 3 5 2 16 17 13 13 17 21 23 24 24 28 30 31 32 32 32 31 30 29 30 29 29 25 25 24 22 20 19 19 19 19 19 19 19 20 21 22 22 23
3 3 3 3 5 3 6 10 10 14 17 19 20 23 24 25 28 28 31 29 29 29 27 27 28 27 27 25 24 24 23 21 20 19 20 21 20 20 20 20 19 20 23 24
Wind_Direction
251 248 253 258 252 250 262 268 274 276 275 276 267 271 261 239 243 253 224 243 227 226 220 209 211 209 209 203 201 206 207 206 204 206 207 210 200 203 203 201 198 206 215 215
275 257 261 270 265 258 259 260 260 266 262 264 268 266 262 269 253 232 232 238 241 226 220 208 210 208 206 211 206 201 208 208 207 209 209 211 211 208 205 209 214 217 215 218
280 273 278 275 260 261 253 247 254 259 270 269 270 264 254 245 251 254 249 234 238 241 225 216 207 212 206 210 211 210 213 212 210 204 197 210 209 208 211 214 216 215 211 216
284 278 275 275 258 243 251 242 245 255 263 264 256 260 253 236 233 235 240 218 229 237 225 221 214 210 208 206 211 216 218 217 212 198 199 211 212 212 216 218 215 212 210 216
268 289 292 277 265 261 265 252 250 249 249 251 255 266 268 245 226 221 226 219 218 228 226 221 211 209 215 208 215 217 217 222 217 206 202 206 216 216 219 220 211 213 216 217
271 287 276 267 276 268 247 228 250 242 234 239 245 240 256 246 246 214 214 218 220 218 222 224 221 210 217 208 208 212 213 213 206 204 210 217 214 213 213 213 212 217 219 221
310 288 310 284 302 273 189 174 214 206 209 233 228 228 237 245 230 230 208 209 220 220 216 218 219 208 211 206 206 213 213 210 206 207 214 213 210 220 219 215 215 214 222 224
338 321 349 102 283 303 203 190 209 217 228 239 223 241 228 223 250 270 215 207 211 214 212 210 210 209 207 207 206 208 206 206 206 208 215 214 209 221 217 219 220 223 225 230
310 291 309 290 281 223 162 205 221 335 264 269 213 228 245 219 224 232 235 227 204 211 209 208 205 204 203 202 203 207 207 208 210 214 214 211 210 222 221 221 222 223 227 231
281 297 327 323 313 185 280 302 220 230 269 220 224 205 209 194 210 223 203 213 213 204 205 207 205 202 203 205 205 207 209 210 213 216 215 218 221 224 225 224 225 224 231 231
302 254 293 320 7 300 200 209 220 247 273 317 7 133 358 13 117 181 195 213 214 221 204 203 198 199 203 206 209 207 207 209 215 214 216 219 220 223 223 225 227 229 233 231
353 291 293 299 298 340 319 268 214 232 228 216 299 62 19 7 339 307 273 221 219 213 201 186 186 189 197 207 208 203 204 210 212 218 219 221 222 222 220 222 226 226 221 216
1 306 302 338 160 56 345 287 249 252 295 257 280 80 13 5 355 350 237 79 115 137 155 174 178 187 197 202 197 199 204 209 213 220 224 224 222 221 219 217 226 218 209 197
326 263 264 289 298 303 325 350 16 192 219 272 39 3 354 354 357 17 47 84 105 118 133 152 161 170 180 192 190 197 199 202 205 212 218 217 216 214 209 205 202 193 179 185
321 281 295 296 283 274 31 7 16 22 351 22 34 42 354 343 4 49 63 75 82 84 102 118 135 144 156 159 163 172 180 181 191 192 186 181 184 167 149 132 136 144 139 160
331 283 315 290 280 337 45 10 5 26 11 1 5 42 4 354 50 61 63 71 76 77 87 97 107 110 112 115 110 111 116 123 114 121 115 111 109 117 118 124 125 148 174 171
310 316 331 295 329 320 34 10 355 27 25 354 10 9 11 34 48 46 63 70 74 78 83 93 98 98 100 98 98 97 99 100 96 95 94 95 101 113 129 147 164 176 196 205
289 316 290 296 315 44 61 17 359 351 26 14 9 7 21 60 62 48 50 64 68 73 78 82 93 96 96 101 97 99 96 98 105 106 111 114 122 133 135 161 179 185 194 215
301 303 313 320 321 344 357 355 343 346 25 10 5 10 25 72 72 41 44 65 74 80 89 92 96 100 105 103 110 109 104 100 98 94 90 89 88 94 109 124 156 194 230 264
337 261 275 312 26 15 350 337 332 303 32 356 6 19 26 41 70 33 47 79 84 86 88 91 93 96 96 93 99 101 90 87 78 67 64 64 70 78 87 87 58 300 297 301
337 358 16 358 31 52 351 336 342 47 334 346 13 32 46 55 64 67 80 78 82 86 90 92 90 83 80 80 82 82 82 73 63 61 62 61 59 56 52 43 27 4 348 340
349 342 3 348 24 10 349 353 42 342 15 13 29 38 57 66 72 78 82 82 82 82 82 82 84 82 82 83 83 80 74 68 63 59 59 58 53 46 37 26 16 6 357 351
39 16 354 25 47 26 2 21 29 35 32 31 48 52 66 71 71 74 76 78 80 81 82 82 80 79 75 71 69 68 65 63 58 52 52 52 47 44 39 33 29 22 14 6
84 17 37 204 19 58 29 30 31 37 36 51 56 67 74 78 80 82 81 78 78 77 76 78 79 76 71 66 65 66 64 61 55 52 50 49 46 42 36 28 22 13 6 0
0 318 356 73 39 162 30 21 22 49 66 67 76 76 74 81 80 81 81 78 77 77 75 73 71 70 69 66 66 65 62 57 54 50 47 40 34 30 25 19 17 15 9 4
21 3 357 74 31 28 29 17 46 71 72 77 75 77 80 82 84 85 83 82 80 78 77 75 73 71 68 65 63 60 55 48 44 40 36 31 25 21 18 16 17 17 13 8